Flag for U.S.A. Weather past 2 weeks in Harrisburg, Pennsylvania, U.S.A.

Now
82 °F

Sunny.


Feels Like: 85 °F
Forecast: 70 / 87 °F
Wind: 9 mph from Northwest

Location: Capital City Airport

Current Time: Jul 7, 2015 at 2:00:09 PM

Latest Report: Jul 7, 2015 at 12:56 PM


Visibility: 10 mi

Pressure: 30.01 "Hg

Humidity: 63%

Dew point: 68 °F

Location of HarrisburgLocation

Historic Weather in Harrisburg — Graph

°F

Harrisburg temperature yesterday

Maximum temperature yesterday: 82 °F (at 1:56 PM)
Minimum temperature yesterday: 70 °F (at 4:56 AM)
Average temperature yesterday: 75 °F

Past Weeks' High & Low Weather Summary

 TemperatureHumidityPressure
High89 °F (Jun 23, 1:56 PM)97% (Jul 5, 6:56 AM)30.16 "Hg (Jul 5, 6:56 AM)
Low56 °F (Jun 29, 4:56 AM)36% (Jun 22, 3:56 PM)29.68 "Hg (Jun 28, 1:56 AM)
Average71 °F73%29.95 "Hg
* Reported Jun 22 12:56 PM — Jul 7 12:56 PM, Harrisburg, Weather by CustomWeather, © 2015

Note: Actual official high and low records may vary slightly from our data, if they occured in-between our weather recording intervals... More about our weather records

Advertising

Harrisburg weather history for previous 24 hours

 ConditionsComfort  
Time TempWeatherWind HumidityBarometerVisibility
12:56 PM
Tue, Jul 7
82 °FSunny.9 mph63%30.01 "Hg10 mi
11:56 AM81 °FPassing clouds.7 mph69%30.02 "Hg10 mi
10:56 AM79 °FBroken clouds.8 mph72%30.03 "Hg10 mi
9:56 AM78 °FPartly sunny.5 mph76%30.03 "Hg10 mi
8:56 AM76 °FBroken clouds.5 mph82%30.03 "Hg10 mi
7:56 AM74 °FMostly cloudy.6 mph85%30.04 "Hg10 mi
6:56 AM73 °FBroken clouds.5 mph90%30.03 "Hg7 mi
5:56 AM73 °FLow clouds.No wind88%30.01 "Hg9 mi
4:56 AM73 °FMostly cloudy.3 mph88%30.00 "Hg10 mi
3:56 AM73 °FOvercast.3 mph90%30.01 "Hg9 mi
2:56 AM73 °FPassing clouds.No wind88%30.01 "Hg9 mi
1:56 AM73 °FPassing clouds.No wind88%30.01 "Hg10 mi
12:56 AM73 °FPassing clouds.No wind90%30.01 "Hg10 mi
11:56 PM
Mon, Jul 6
74 °FMostly cloudy.3 mph85%30.01 "Hg10 mi
10:56 PM73 °FPassing clouds.3 mph84%30.02 "Hg10 mi
9:56 PM73 °FPassing clouds.6 mph81%30.03 "Hg10 mi
8:56 PM74 °FPassing clouds.5 mph82%30.02 "Hg10 mi
7:56 PM78 °FMostly cloudy.3 mph76%30.01 "Hg10 mi
6:56 PM80 °FOvercast.8 mph71%30.03 "Hg10 mi
5:56 PM82 °FSunny.7 mph74%30.02 "Hg10 mi
4:56 PM76 °FLight rain. Fog.No wind88%30.05 "Hg3 mi
3:56 PM81 °FBroken clouds.7 mph67%30.05 "Hg9 mi
2:56 PM80 °FBroken clouds.9 mph67%30.07 "Hg10 mi
Weather by CustomWeather, © 2015

See weather overviewHow to use our weather pages